Latest Weather Observations for Mount Gambier

IDS60801

Issued at 9:32 pm CDT Tuesday 31 March 2015 (issued every 30 minutes, with the page automatically refreshed every 10 minutes)

About weather observations | Map of weather stations | Latest weather observations for SA | Other Formats
Station Details ID: 026021 Name: MOUNT GAMBIER AERO Lat: -37.75 Lon: 140.77 Height: 63.0 m
Data from the previous 72 hours. | See also: Recent months at Mount Gambier
Date/Time
CDT
Temp
°C
App
Temp
°C
Dew
Point
Rel
Hum
%
Delta-T
°C
Wind Press
QNH
hPa
Press
MSL
hPa
Rain
since 9 am
mm
Dir
 
Spd
km/h
Gust
km/h
Spd
kts
Gust
kts
31/09:30pm 15.3 14.8 12.2 82 1.7 E 6 7 3 4 1020.8 - 0.2
31/09:00pm 15.6 14.6 12.3 81 1.8 E 9 11 5 6 1020.8 1020.7 0.2
31/08:30pm 15.9 15.4 12.6 81 1.8 S 7 9 4 5 1021.0 - 0.2
31/08:00pm 16.5 15.4 13.1 80 1.9 S 11 13 6 7 1020.9 - 0.2
31/07:30pm 17.8 16.8 13.4 75 2.5 SSW 11 15 6 8 1020.9 - 0.2
31/07:00pm 18.8 17.2 12.9 68 3.3 S 13 19 7 10 1020.9 - 0.2
31/06:30pm 20.3 18.7 12.7 61 4.3 SSW 13 15 7 8 1020.4 - 0.2
31/06:00pm 22.0 19.2 12.7 55 5.3 SSW 19 26 10 14 1020.4 1020.3 0.2
31/05:30pm 24.7 21.0 12.7 47 6.9 SSW 24 28 13 15 1020.4 - 0.2
31/05:00pm 26.6 23.4 5.0 25 11.0 NW 11 19 6 10 1020.4 - 0.2
31/04:30pm 26.8 23.2 6.6 27 10.6 N 15 22 8 12 1020.3 - 0.2
31/04:00pm 26.4 21.9 5.9 27 10.6 N 19 24 10 13 1020.8 - 0.2
31/03:30pm 26.7 23.7 6.1 27 10.7 WNW 11 20 6 11 1021.2 - 0.2
31/03:00pm 26.4 23.0 5.9 27 10.6 NNW 13 22 7 12 1021.6 1021.5 0.2
31/02:00pm 25.1 22.0 8.8 35 8.8 N 15 20 8 11 1022.4 - 0.2
31/01:30pm 24.4 21.1 8.2 35 8.7 NNW 15 28 8 15 1022.9 - 0.2
31/01:00pm 23.3 20.0 9.7 42 7.4 NNW 17 26 9 14 1023.3 - 0.2
31/09:30am 12.9 11.2 12.3 96 0.3 NE 13 17 7 9 1025.8 - 0.2
31/09:00am 12.3 10.5 12.1 99 0.1 ENE 13 17 7 9 1025.6 1025.5 0.0
31/08:30am 12.1 9.9 12.1 100 0.0 NE 15 19 8 10 1025.4 - 0.0
31/08:00am 12.2 10.0 12.2 100 0.0 E 15 19 8 10 1025.3 - 0.0
31/07:30am 12.3 11.3 12.3 100 0.0 NE 9 13 5 7 1025.6 - 0.0
31/07:00am 12.5 11.5 12.3 99 0.1 E 9 13 5 7 1025.5 - 0.0
31/06:30am 12.7 11.8 12.7 100 0.0 E 9 13 5 7 1025.3 - 0.0
31/06:00am 12.7 11.4 12.5 99 0.1 E 11 15 6 8 1025.0 1024.9 0.0
31/05:30am 13.1 12.0 13.1 100 0.0 E 11 15 6 8 1024.8 - 0.0
31/05:00am 13.1 11.5 12.9 99 0.1 E 13 15 7 8 1024.8 - 0.0
31/04:30am 13.3 12.2 13.1 99 0.1 E 11 15 6 8 1024.8 - 0.0
31/04:00am 13.5 12.1 13.3 99 0.1 E 13 17 7 9 1025.0 - 0.0
31/03:30am 12.6 12.2 12.4 99 0.1 ESE 6 9 3 5 1025.1 - 0.0
31/03:00am 12.2 11.7 12.0 99 0.1 E 6 7 3 4 1025.2 1025.1 0.0
31/02:30am 12.3 12.6 12.1 99 0.1 ENE 2 7 1 4 1025.3 - 0.0
31/02:00am 12.2 12.8 12.0 99 0.1 CALM 0 0 0 0 1025.6 - 0.0
31/01:30am 12.4 13.0 12.0 97 0.2 CALM 0 0 0 0 1025.6 - 0.0
31/01:00am 11.5 10.6 11.3 99 0.1 ENE 7 7 4 4 1025.7 - 0.0
31/12:30am 10.6 10.7 10.0 96 0.3 CALM 0 0 0 0 1025.8 - 0.0
31/12:22am 10.5 10.6 10.1 97 0.2 CALM 0 0 0 0 1025.7 - 0.0
31/12:00am 11.8 12.2 11.4 97 0.2 CALM 0 0 0 0 1025.8 1025.7 0.0
 
Date/Time
CDT
Temp
°C
App
Temp
°C
Dew
Point
Rel
Hum
%
Delta-T
°C
Wind Press
QNH
hPa
Press
MSL
hPa
Rain
since 9 am
mm
Dir
 
Spd
km/h
Gust
km/h
Spd
kts
Gust
kts
30/11:30pm 12.1 12.6 11.7 97 0.2 CALM 0 0 0 0 1026.1 - 0.0
30/11:00pm 12.7 13.4 12.1 96 0.3 CALM 0 0 0 0 1026.1 - 0.0
30/10:37pm 13.5 14.4 12.8 95 0.4 CALM 0 0 0 0 1026.1 - 0.0
30/10:30pm 13.8 14.3 12.9 94 0.5 ENE 2 6 1 3 1026.0 - 0.0
30/10:00pm 13.5 13.1 13.0 97 0.3 NE 7 9 4 5 1026.1 - 0.0
30/09:50pm 13.6 13.1 12.7 94 0.5 NE 7 9 4 5 1026.1 - 0.0
30/09:30pm 13.2 11.8 12.1 93 0.6 NNE 11 13 6 7 1026.1 - 0.0
30/09:00pm 14.0 13.6 12.9 93 0.6 SSW 7 7 4 4 1025.8 1025.7 0.0
30/08:30pm 14.7 14.3 12.9 89 1.0 SSW 7 7 4 4 1025.7 - 0.0
30/08:00pm 15.7 14.2 13.2 85 1.4 SW 13 15 7 8 1025.6 - 0.0
30/07:30pm 16.1 14.5 12.7 80 1.9 SW 13 17 7 9 1025.3 - 0.0
30/07:00pm 17.6 15.7 12.9 74 2.6 WSW 15 19 8 10 1025.0 - 0.0
30/06:30pm 18.6 16.5 12.5 67 3.4 WSW 15 20 8 11 1024.7 - 0.0
30/06:00pm 19.4 16.7 11.6 60 4.3 W 17 24 9 13 1024.5 1024.4 0.0
30/05:30pm 20.4 17.2 11.3 56 5.0 WSW 19 28 10 15 1024.3 - 0.0
30/05:00pm 20.8 17.3 10.9 53 5.4 WSW 20 30 11 16 1024.2 - 0.0
30/04:30pm 21.4 17.9 11.0 51 5.7 W 20 30 11 16 1024.0 - 0.0
30/04:00pm 20.4 17.0 10.4 52 5.4 WSW 19 26 10 14 1024.0 - 0.0
30/03:30pm 21.5 17.5 10.3 49 6.1 WSW 22 30 12 16 1024.0 - 0.0
30/03:00pm 22.0 19.0 10.5 48 6.3 W 17 19 9 10 1024.0 1023.9 0.0
30/02:30pm 21.5 18.7 11.2 52 5.7 W 17 22 9 12 1024.2 - 0.0
30/02:00pm 21.6 19.6 11.5 52 5.6 WNW 13 22 7 12 1024.4 - 0.0
30/01:30pm 20.6 18.8 12.2 58 4.7 WNW 13 19 7 10 1024.7 - 0.0
30/01:00pm 20.9 19.2 12.4 58 4.8 NW 13 24 7 13 1025.0 - 0.0
30/12:30pm 19.2 17.9 12.6 65 3.7 WNW 11 17 6 9 1025.2 - 0.0
30/12:00pm 18.5 17.0 13.0 70 3.1 NW 13 19 7 10 1025.3 1025.2 0.0
30/11:30am 18.0 17.0 13.4 74 2.6 NNW 11 17 6 9 1025.4 - 0.0
30/11:00am 18.3 16.9 13.5 73 2.7 N 13 17 7 9 1025.6 - 0.0
30/10:30am 15.2 14.1 14.3 94 0.5 NNW 13 17 7 9 1025.6 - 0.0
30/10:00am 14.4 12.9 14.2 99 0.1 NNW 15 19 8 10 1025.6 - 0.0
30/09:30am 13.7 13.5 13.7 100 0.0 N 7 11 4 6 1025.2 - 0.0
30/09:00am 12.5 12.0 12.5 100 0.0 N 7 11 4 6 1024.9 1024.8 0.0
30/08:30am 11.8 10.7 11.8 100 0.0 N 9 11 5 6 1024.5 - 0.0
30/07:30am 10.8 10.7 10.8 100 0.0 ENE 2 7 1 4 1024.0 - 0.0
30/07:00am 10.0 8.0 10.0 100 0.0 NNE 11 13 6 7 1023.6 - 0.0
30/06:30am 10.1 8.4 9.9 99 0.1 NNE 9 11 5 6 1023.4 - 0.0
30/06:00am 10.2 8.6 10.2 100 0.0 NNE 9 11 5 6 1023.1 1023.0 0.0
30/05:30am 10.8 9.0 10.8 100 0.0 NNE 11 11 6 6 1023.0 - 0.0
30/05:00am 10.8 9.9 10.8 100 0.0 NNE 6 9 3 5 1022.9 - 0.0
30/04:30am 11.3 10.3 11.1 99 0.1 N 7 9 4 5 1022.7 - 0.0
30/04:00am 11.4 11.8 11.2 99 0.1 CALM 0 6 0 3 1022.8 - 0.0
30/03:30am 11.1 11.4 10.9 99 0.1 CALM 0 0 0 0 1022.9 - 0.0
30/03:00am 9.7 7.9 9.5 99 0.1 NNE 9 11 5 6 1022.9 1022.8 0.0
30/02:30am 9.7 8.0 9.7 100 0.0 NE 9 9 5 5 1022.9 - 0.0
30/02:00am 10.4 9.6 9.8 96 0.3 NNE 4 9 2 5 1022.9 - 0.0
30/01:57am 10.0 9.6 9.6 97 0.2 NNE 2 7 1 4 1022.9 - 0.0
30/01:30am 10.7 10.8 10.3 97 0.2 CALM 0 0 0 0 1023.0 - 0.0
30/01:00am 9.6 7.4 9.2 97 0.2 NNE 11 11 6 6 1023.1 - 0.0
30/12:30am 10.4 9.1 10.0 97 0.2 NNE 7 9 4 5 1023.1 - 0.0
30/12:00am 10.6 9.4 10.2 97 0.2 NNE 7 9 4 5 1023.2 1023.1 0.0
 
Date/Time
CDT
Temp
°C
App
Temp
°C
Dew
Point
Rel
Hum
%
Delta-T
°C
Wind Press
QNH
hPa
Press
MSL
hPa
Rain
since 9 am
mm
Dir
 
Spd
km/h
Gust
km/h
Spd
kts
Gust
kts
29/11:30pm 11.5 10.7 11.1 97 0.2 NNE 6 9 3 5 1023.2 - 0.0
29/11:00pm 11.7 10.9 10.9 95 0.4 N 6 6 3 3 1023.4 - 0.0
29/10:30pm 12.2 12.2 11.2 94 0.5 NW 2 7 1 4 1023.4 - 0.0
29/10:00pm 12.5 12.9 11.4 93 0.6 CALM 0 0 0 0 1023.4 - 0.0
29/09:30pm 12.6 12.9 10.9 89 0.9 CALM 0 0 0 0 1023.2 - 0.0
29/09:00pm 13.7 13.1 11.6 87 1.1 WSW 6 7 3 4 1023.2 1023.1 0.0
29/08:30pm 14.6 13.5 11.8 83 1.5 W 9 11 5 6 1022.9 - 0.0
29/08:00pm 15.3 13.2 11.2 76 2.2 W 13 15 7 8 1022.7 - 0.0
29/07:30pm 16.1 13.7 10.0 67 3.2 WNW 13 15 7 8 1022.6 - 0.0
29/07:00pm 17.3 14.0 9.4 59 4.1 W 17 22 9 12 1022.3 - 0.0
29/06:30pm 18.5 14.1 9.1 54 4.9 W 22 28 12 15 1022.0 - 0.0
29/06:00pm 19.1 14.1 8.0 48 5.7 W 24 30 13 16 1021.7 1021.6 0.0
29/05:30pm 20.2 14.8 8.0 45 6.3 W 26 30 14 16 1021.4 - 0.0
29/05:00pm 20.7 15.1 7.2 41 6.9 WSW 26 32 14 17 1021.2 - 0.0
29/04:30pm 21.4 17.0 7.4 40 7.2 W 20 32 11 17 1021.0 - 0.0
29/04:00pm 21.1 16.5 8.0 43 6.8 WSW 22 32 12 17 1020.9 - 0.0
29/03:30pm 21.0 17.4 8.4 44 6.6 WSW 17 26 9 14 1020.8 - 0.0
29/03:00pm 21.1 17.0 8.8 45 6.5 W 20 30 11 16 1021.0 1020.9 0.0
29/02:30pm 21.6 18.6 7.5 40 7.3 W 13 24 7 13 1021.1 - 0.0
29/02:00pm 22.0 18.5 7.3 38 7.6 WNW 15 20 8 11 1021.3 - 0.0
29/01:30pm 20.9 17.8 7.2 41 7.0 WNW 13 26 7 14 1021.8 - 0.0
29/01:00pm 21.2 17.7 7.4 41 7.1 NW 15 20 8 11 1022.0 - 0.0
29/12:30pm 21.3 17.6 7.8 41 7.0 N 17 24 9 13 1022.1 - 0.0
29/12:00pm 20.4 17.3 8.8 47 6.1 WNW 15 19 8 10 1022.3 1022.2 0.0
29/11:30am 19.0 16.5 9.8 55 4.9 NNW 13 20 7 11 1022.5 - 0.0
29/11:00am 18.2 15.4 10.1 59 4.3 NNW 15 24 8 13 1022.7 - 0.0
29/10:30am 17.5 15.4 9.9 61 4.0 N 11 17 6 9 1022.9 - 0.0
29/10:00am 16.4 14.7 9.9 65 3.4 N 9 15 5 8 1022.9 - 0.0
29/09:30am 14.0 11.6 9.9 76 2.1 N 13 17 7 9 1022.8 - 0.0
29/09:00am 12.7 9.8 9.8 82 1.5 N 15 19 8 10 1022.5 1022.4 0.0
29/08:30am 11.0 9.2 9.6 91 0.7 N 9 13 5 7 1022.3 - 0.0
29/08:00am 9.0 8.3 8.4 96 0.3 N 2 7 1 4 1022.2 - 0.0
29/07:30am 8.8 7.6 8.2 96 0.3 E 4 7 2 4 1021.9 - 0.0
29/07:00am 9.5 7.5 8.5 93 0.5 NE 9 11 5 6 1021.5 - 0.0
29/06:30am 9.4 7.4 8.6 95 0.4 NNE 9 11 5 6 1021.3 - 0.0
29/06:00am 8.8 7.6 8.2 96 0.3 NW 4 9 2 5 1021.2 1021.1 0.0
29/05:30am 7.5 5.1 7.1 97 0.2 NNE 9 13 5 7 1021.1 - 0.0
29/05:00am 8.0 6.3 7.4 96 0.3 N 6 9 3 5 1020.9 - 0.0
29/04:30am 8.3 6.4 7.7 96 0.3 NW 7 7 4 4 1020.8 - 0.0
29/04:00am 9.1 8.7 8.3 95 0.4 CALM 0 0 0 0 1020.6 - 0.0
29/03:30am 7.8 7.1 6.9 94 0.4 CALM 0 0 0 0 1020.7 - 0.0
29/03:00am 8.8 8.0 8.2 96 0.3 NW 2 9 1 5 1021.1 1021.0 0.0
29/02:30am 7.9 5.6 7.5 97 0.2 NNE 9 9 5 5 1021.1 - 0.0
29/02:00am 8.6 8.2 8.2 97 0.2 CALM 0 0 0 0 1021.3 - 0.0
29/01:30am 8.8 8.4 8.2 96 0.3 CALM 0 0 0 0 1021.2 - 0.0
29/01:00am 9.3 9.0 8.7 96 0.3 CALM 0 0 0 0 1021.3 - 0.0
29/12:30am 9.3 7.8 8.3 93 0.5 N 6 7 3 4 1021.4 - 0.0
29/12:00am 8.7 7.8 7.9 95 0.4 NNE 2 7 1 4 1021.5 1021.4 0.0
 
Date/Time
CDT
Temp
°C
App
Temp
°C
Dew
Point
Rel
Hum
%
Delta-T
°C
Wind Press
QNH
hPa
Press
MSL
hPa
Rain
since 9 am
mm
Dir
 
Spd
km/h
Gust
km/h
Spd
kts
Gust
kts
28/11:30pm 9.2 8.8 8.4 95 0.4 CALM 0 0 0 0 1021.7 - 0.0
28/11:00pm 10.3 10.1 9.1 92 0.6 CALM 0 6 0 3 1021.8 - 0.0
28/10:30pm 9.7 8.0 8.5 92 0.6 NNE 7 7 4 4 1022.1 - 0.0
28/10:00pm 10.1 8.2 9.1 93 0.5 NE 9 9 5 5 1022.2 - 0.0

Other Formats:

Comma delimited format used in spreadsheet applications
http://www.bom.gov.au/fwo/IDS60801/IDS60801.94821.axf

JavaScript Object Notation format (JSON) in row-major order
http://www.bom.gov.au/fwo/IDS60801/IDS60801.94821.json